Stations météo

réclame
Mon MeteoGroup
Eindhoven, Pays-Bas (6370): Température de l'air & dewpoint: 13.11.2017 20:00:00 - 19.11.2017 20:00:00 (CET)Eindhoven, Pays-Bas (6370): Température de l'air 5cm: 13.11.2017 20:00:00 - 19.11.2017 20:00:00 (CET)Eindhoven, Pays-Bas (6370): Vitesse du vent & gusts: 13.11.2017 20:00:00 - 19.11.2017 20:00:00 (CET)Eindhoven, Pays-Bas (6370): Direction du vent: 13.11.2017 20:00:00 - 19.11.2017 20:00:00 (CET)Eindhoven, Pays-Bas (6370): reduced air pressure: 13.11.2017 20:00:00 - 19.11.2017 20:00:00 (CET)Eindhoven, Pays-Bas (6370): visibility: 13.11.2017 20:00:00 - 19.11.2017 20:00:00 (CET)Eindhoven, Pays-Bas (6370): Quantités de précipitations: 13.11.2017 20:00:00 - 19.11.2017 20:00:00 (CET)
Date & Time tt [°C] td [°C] tt 5cm [°C] ff [km/h] ff [knt] fx [km/h] fx [knt] dd ppp [hPa] vv [km] rr [mm]
19.11.2017 20:00:00 5,6 3,9 5,0 15 8 29 16 W 1021,4 10 0,0
19.11.2017 19:00:00 5,5 3,4 4,2 13 7 - - WSW 1021,0 10 0,0
19.11.2017 18:00:00 6,0 3,1 4,8 11 6 18 10 W 1020,5 10 0,0
19.11.2017 17:00:00 6,4 2,6 5,0 11 6 25 14 W 1020,2 10 0,0
19.11.2017 16:00:00 8,1 3,0 7,0 11 6 - - WNW 1019,7 10 0,0
19.11.2017 15:00:00 7,9 3,8 6,8 9 5 32 18 WNW 1019,4 10 0,2
19.11.2017 14:00:00 8,0 3,9 7,4 18 10 43 23 NW 1019,4 6 0,1
19.11.2017 13:00:00 8,4 4,8 8,2 16 9 - - W 1019,0 10 0,0
19.11.2017 12:00:00 8,0 3,7 7,8 24 13 40 21 W 1018,9 10 0,0
19.11.2017 11:00:00 8,0 5,0 7,7 13 7 22 12 WSW 1018,6 10 0,0
19.11.2017 10:00:00 6,1 4,1 6,0 15 8 - - WSW 1018,2 10 0,0
19.11.2017 09:00:00 4,4 3,0 3,3 13 7 25 14 WSW 1017,9 10 0,0
19.11.2017 08:00:00 4,2 2,8 3,0 15 8 25 14 W 1017,3 10 0,0
19.11.2017 07:00:00 3,3 1,9 2,0 13 7 - - WSW 1017,0 10 0,0
19.11.2017 06:00:00 2,7 1,4 1,4 9 5 18 10 WSW 1016,7 10 0,0
19.11.2017 05:00:00 2,8 2,1 0,8 9 5 14 8 WSW 1016,6 10 0,0
19.11.2017 04:00:00 3,7 2,1 2,6 9 5 - - W 1016,3 10 0,0
19.11.2017 03:00:00 5,6 2,8 4,8 11 6 32 18 WNW 1016,5 10 0,0
19.11.2017 02:00:00 4,2 3,4 3,7 8 4 18 10 WSW 1015,9 10 0,0
19.11.2017 01:00:00 5,5 4,0 4,4 9 5 - - WNW 1016,2 10 0,2
19.11.2017 00:00:00 6,0 4,0 5,6 13 7 22 12 W 1016,1 10 0,7
18.11.2017 23:00:00 5,7 4,9 5,3 5 3 18 10 - 1016,3 10 0,0
18.11.2017 22:00:00 6,8 5,2 5,7 9 5 - - W 1016,4 10 0,0
18.11.2017 21:00:00 5,9 5,1 5,1 8 4 29 16 WSW 1016,6 10 0,2
18.11.2017 20:00:00 6,9 5,6 6,4 16 9 25 14 W 1017,1 10 0,8
18.11.2017 19:00:00 7,2 5,5 6,9 13 7 - - W 1017,3 6 0,0
18.11.2017 18:00:00 6,9 5,6 6,1 11 6 22 12 WSW 1017,3 10 0,0
18.11.2017 17:00:00 7,2 5,7 6,6 13 7 25 14 WSW 1017,7 10 0,0
18.11.2017 16:00:00 7,0 5,3 6,3 21 11 - - WSW 1017,8 10 0,3
18.11.2017 15:00:00 7,3 4,5 7,0 26 14 40 21 WSW 1017,7 6 0,1
18.11.2017 14:00:00 7,3 3,5 7,3 29 16 43 23 SW 1018,3 10 0,0
18.11.2017 13:00:00 6,8 3,2 6,7 28 15 - - SW 1019,3 10 0,0
18.11.2017 12:00:00 6,9 2,7 6,6 24 13 36 19 SW 1019,8 10 0,0
18.11.2017 11:00:00 5,9 2,0 5,7 22 12 36 19 SW 1020,7 10 0,0
18.11.2017 10:00:00 5,4 1,7 5,1 22 12 - - SW 1020,9 10 0,0
18.11.2017 09:00:00 4,9 1,7 4,4 18 10 29 16 SW 1021,7 10 0,0
18.11.2017 08:00:00 4,5 1,8 4,1 18 10 25 14 SW 1021,6 10 0,0
18.11.2017 07:00:00 4,3 1,8 3,9 15 8 - - SSW 1021,9 10 0,0
18.11.2017 06:00:00 4,1 1,7 3,7 15 8 22 12 SW 1022,4 10 0,0
18.11.2017 05:00:00 3,8 1,6 3,4 15 8 18 10 SW 1022,9 10 0,0
18.11.2017 04:00:00 3,3 1,6 2,8 13 7 - - SSW 1023,3 10 0,0
18.11.2017 03:00:00 2,8 1,3 1,9 13 7 18 10 SSW 1024,1 10 0,0
18.11.2017 02:00:00 0,9 0,3 -1,1 13 7 14 8 SW 1024,8 10 0,0
18.11.2017 01:00:00 0,5 -0,4 -1,9 11 6 - - SW 1025,3 10 0,0
18.11.2017 00:00:00 1,2 0,5 -2,7 9 5 11 6 SSW 1025,6 10 0,0
17.11.2017 23:00:00 1,4 0,4 -1,7 9 5 11 6 SW 1025,9 10 0,0
17.11.2017 22:00:00 0,7 -0,5 -2,1 9 5 - - SW 1026,2 10 0,0
17.11.2017 21:00:00 2,8 1,4 0,4 4 2 11 6 - 1026,5 10 0,0
17.11.2017 20:00:00 3,1 1,5 0,3 8 4 11 6 SW 1026,3 10 0,0
17.11.2017 19:00:00 4,4 2,4 2,1 8 4 - - WSW 1026,8 10 0,0
17.11.2017 18:00:00 4,9 2,3 1,1 8 4 11 6 SSW 1026,8 10 0,0
17.11.2017 17:00:00 6,5 3,5 4,2 5 3 7 4 SSW 1026,7 10 0,0
17.11.2017 16:00:00 7,3 3,8 6,7 5 3 - - SSW 1027,1 10 0,0
17.11.2017 15:00:00 9,0 3,0 8,4 4 2 11 6 - 1027,4 10 0,0
17.11.2017 14:00:00 9,4 3,3 9,4 4 2 11 6 - 1027,8 10 0,0
17.11.2017 13:00:00 10,0 2,6 11,0 4 2 - - - 1027,8 10 0,0
17.11.2017 12:00:00 9,2 5,0 10,6 4 2 7 4 - 1028,1 10 0,0
17.11.2017 11:00:00 7,3 5,2 8,2 2 1 7 4 - 1028,4 10 0,0
17.11.2017 10:00:00 4,7 4,1 4,3 2 1 - - - 1028,2 10 0,0
17.11.2017 09:00:00 0,9 0,6 -1,8 2 1 4 2 - 1028,2 0,6 0,0
17.11.2017 08:00:00 0,7 0,2 -2,6 2 1 7 4 - 1027,6 0,5 0,0
17.11.2017 07:00:00 1,5 1,2 -1,9 0 0 - - N 1027,1 0,7 0,0
17.11.2017 06:00:00 3,6 3,1 -0,5 2 1 4 2 WNW 1026,7 0,6 0,0
17.11.2017 05:00:00 4,8 4,5 1,0 2 1 11 6 - 1026,5 7 0,0
17.11.2017 04:00:00 6,1 5,6 3,8 5 3 - - NW 1026,1 7 0,0
17.11.2017 03:00:00 8,0 7,6 7,7 8 4 14 8 NW 1025,8 8 0,0
17.11.2017 02:00:00 8,2 7,8 7,6 5 3 11 6 WNW 1025,2 6 0,0
17.11.2017 01:00:00 9,0 8,3 8,7 8 4 - - NNW 1024,8 10 0,1
17.11.2017 00:00:00 9,5 8,5 9,3 15 8 29 16 N 1024,4 6 0,2
16.11.2017 23:00:00 9,9 9,2 9,6 11 6 14 8 WSW 1024,0 3,6 0,0
16.11.2017 22:00:00 9,6 8,9 9,4 8 4 - - WSW 1023,8 3,7 0,0
16.11.2017 21:00:00 9,5 8,7 9,0 13 7 22 12 SW 1023,6 4,4 0,0
16.11.2017 20:00:00 9,3 8,6 8,9 8 4 14 8 WSW 1023,4 4,3 0,0
16.11.2017 19:00:00 9,3 8,5 9,1 11 6 - - SW 1022,9 4,9 0,0
16.11.2017 18:00:00 9,3 8,5 9,2 11 6 18 10 SW 1022,8 5 0,0
16.11.2017 17:00:00 9,3 8,6 9,2 11 6 18 10 SSW 1022,5 4,1 0,0
16.11.2017 16:00:00 9,4 8,6 9,3 9 5 - - SW 1022,4 4,3 0,0
16.11.2017 15:00:00 9,3 8,5 9,3 13 7 22 12 SW 1022,4 4,6 0,0
16.11.2017 14:00:00 9,3 8,5 9,2 11 6 18 10 SSW 1022,8 6 0,0
16.11.2017 13:00:00 9,1 8,5 9,2 11 6 - - SSW 1022,9 4,9 0,8
16.11.2017 12:00:00 9,2 7,9 9,3 11 6 22 12 SSW 1023,4 3,8 0,0
16.11.2017 11:00:00 9,2 7,9 9,2 11 6 22 12 SSW 1023,6 8 0,0
16.11.2017 10:00:00 9,0 7,6 9,2 13 7 - - SSW 1023,6 8 0,0
16.11.2017 09:00:00 8,5 7,5 8,2 9 5 18 10 S 1023,6 8 0,0
16.11.2017 08:00:00 8,5 7,6 8,3 11 6 18 10 SSW 1023,2 8 0,0
16.11.2017 07:00:00 8,6 7,7 8,4 9 5 - - S 1023,0 9 0,0
16.11.2017 06:00:00 8,6 7,9 8,4 9 5 14 8 S 1023,1 7 0,0
16.11.2017 05:00:00 8,6 8,0 8,4 11 6 18 10 S 1023,4 5 0,0
16.11.2017 04:00:00 8,8 8,2 8,6 11 6 - - SSW 1023,8 4,3 0,0
16.11.2017 03:00:00 8,8 8,4 8,7 11 6 18 10 SSW 1024,2 2,3 0,0
16.11.2017 02:00:00 8,9 8,5 8,8 9 5 14 8 S 1024,2 2,5 0,0
16.11.2017 01:00:00 8,9 8,4 8,7 8 4 - - S 1024,3 3,4 0,0
16.11.2017 00:00:00 9,0 8,6 8,9 9 5 18 10 S 1024,8 2,9 0,1
15.11.2017 23:00:00 9,1 8,8 9,0 8 4 11 6 SSW 1025,0 2,1 0,0
15.11.2017 22:00:00 9,2 8,8 9,1 8 4 - - SSW 1025,2 2,9 0,0
15.11.2017 21:00:00 9,2 9,0 9,1 8 4 11 6 S 1025,1 2,6 0,0
15.11.2017 20:00:00 9,3 9,0 9,2 8 4 11 6 S 1025,2 1,0 0,0
15.11.2017 19:00:00 9,3 9,0 9,2 8 4 - - S 1025,2 1,7 0,0
15.11.2017 18:00:00 9,3 9,0 9,2 8 4 11 6 S 1025,3 2,2 0,0
15.11.2017 17:00:00 9,3 9,0 9,3 8 4 11 6 S 1025,4 3,6 0,0
15.11.2017 16:00:00 9,4 8,9 9,5 8 4 - - S 1025,3 4,5 0,0
15.11.2017 15:00:00 9,4 8,8 9,5 8 4 14 8 SSW 1025,3 3,3 0,0
15.11.2017 14:00:00 9,3 8,6 9,5 11 6 14 8 SSW 1025,2 5 0,0
15.11.2017 13:00:00 9,3 8,9 9,4 11 6 - - SW 1025,4 4,1 0,0
15.11.2017 12:00:00 8,8 8,2 9,0 11 6 18 10 SSW 1025,8 7 0,0
15.11.2017 11:00:00 8,5 8,0 8,7 11 6 14 8 SSW 1026,0 4,2 0,0
15.11.2017 10:00:00 8,2 7,8 8,3 11 6 - - SSW 1025,6 3,8 0,0
15.11.2017 09:00:00 7,8 7,5 7,7 9 5 14 8 S 1025,7 3,3 0,0
15.11.2017 08:00:00 7,6 7,3 7,5 8 4 14 8 SSW 1025,4 2,5 0,2
15.11.2017 07:00:00 7,5 7,2 7,5 9 5 - - S 1025,1 2,3 0,1
15.11.2017 06:00:00 7,5 7,2 7,5 8 4 14 8 S 1024,9 2,2 0,2
15.11.2017 05:00:00 7,8 6,9 7,6 11 6 18 10 SSW 1024,8 3,4 0,0
15.11.2017 04:00:00 7,8 7,0 7,6 11 6 - - S 1024,9 5 0,0
15.11.2017 03:00:00 7,9 7,0 7,7 11 6 18 10 SSW 1025,3 5 0,0
15.11.2017 02:00:00 7,8 7,1 7,6 13 7 25 14 SSW 1025,2 5 0,0
15.11.2017 01:00:00 7,7 7,0 7,5 15 8 - - SSW 1025,3 6 0,0
15.11.2017 00:00:00 7,9 6,7 7,8 16 9 25 14 SSW 1025,1 9 0,0
14.11.2017 23:00:00 7,9 6,4 7,2 16 9 22 12 SW 1025,0 10 0,0
14.11.2017 22:00:00 6,7 5,4 5,9 11 6 - - SSW 1025,0 10 0,0
14.11.2017 21:00:00 7,6 5,8 7,1 11 6 22 12 SW 1024,9 10 0,0
14.11.2017 20:00:00 8,4 6,1 8,2 15 8 25 14 SW 1024,8 10 0,0
14.11.2017 19:00:00 8,3 6,0 8,1 16 9 - - SW 1024,5 10 0,0
14.11.2017 18:00:00 8,3 6,0 8,1 22 12 32 18 SW 1024,2 10 0,0
14.11.2017 17:00:00 8,7 5,5 8,4 22 12 32 18 SW 1023,8 10 0,0
14.11.2017 16:00:00 8,9 5,4 8,6 18 10 - - SW 1023,8 10 0,0
14.11.2017 15:00:00 9,1 5,2 8,9 18 10 29 16 SW 1023,7 10 0,0
14.11.2017 14:00:00 9,4 4,8 9,4 21 11 29 16 SW 1023,7 10 0,0
14.11.2017 13:00:00 9,1 4,9 9,5 21 11 - - SW 1024,0 10 0,0
14.11.2017 12:00:00 8,1 4,0 8,4 22 12 36 19 SW 1023,9 10 0,0
14.11.2017 11:00:00 7,0 4,7 7,2 18 10 29 16 SW 1024,6 10 0,0
14.11.2017 10:00:00 5,8 3,9 5,9 16 9 - - SSW 1024,3 10 0,0
14.11.2017 09:00:00 4,8 3,5 4,6 15 8 22 12 SSW 1024,4 10 0,0
14.11.2017 08:00:00 4,2 3,2 3,7 13 7 18 10 SSW 1024,0 10 0,0
14.11.2017 07:00:00 3,2 2,6 2,5 9 5 - - SW 1023,9 9 0,0
14.11.2017 06:00:00 2,9 2,3 1,8 9 5 14 8 SSW 1023,4 10 0,0
14.11.2017 05:00:00 1,9 1,3 1,2 11 6 14 8 SSW 1023,8 10 0,0
14.11.2017 04:00:00 1,4 0,9 0,0 9 5 - - SW 1023,7 10 0,0
14.11.2017 03:00:00 0,1 -0,4 -1,9 9 5 14 8 WSW 1024,1 10 0,0
14.11.2017 02:00:00 0,3 -0,2 -1,0 9 5 11 6 SW 1023,9 10 0,0
14.11.2017 01:00:00 0,8 0,5 -1,2 9 5 - - SW 1023,9 10 0,0
14.11.2017 00:00:00 1,7 1,4 -2,1 5 3 11 6 WSW 1023,9 10 0,0
13.11.2017 23:00:00 1,4 0,7 -1,1 5 3 11 6 SW 1023,9 10 0,0
13.11.2017 22:00:00 2,6 1,6 -1,0 8 4 - - W 1023,7 10 0,0
13.11.2017 21:00:00 2,5 1,7 0,4 9 5 11 6 W 1023,3 10 0,0
13.11.2017 20:00:00 3,7 2,1 1,4 8 4 11 6 W 1022,8 10 0,0

tt = Température de l'air
td = dewpoint
tt 5cm = Température de l'air 5cm
ff = Vitesse du vent
fx = gusts
dd = Direction du vent
ppp = reduced air pressure
vv = visibility
rr = Quantités de précipitations

stations d'obs. à proximité